{"data":{"norad_id":58180,"intl_designator":"2023-167F","name":"STARLINK-30806","alt_names":[],"object_type":"PAYLOAD","status":"ACTIVE","operator":null,"country":"US","launch_date":"2023-10-30","launch_site_code":"AFETR","launch_vehicle":null,"mission":null,"orbit_class":"UNKNOWN","rcs_meters":null,"size_class":null,"mass_kg":null,"dimensions":null,"purposes":["comms"],"wikipedia_slug":null,"has_3d_model":false,"image_url":null,"decayed_at":null,"tle_current":{"epoch":"2026-05-25T03:38:06.265824Z","epoch_age_seconds":58110,"freshness":"FRESH","line1":"1 58180U 23167F   26145.15146141  .00043231  00000+0  14560-2 0  9992","line2":"2 58180  43.0014  71.1711 0002129 203.9411 156.1343 15.30064629142688","mean_motion":15.30064629,"eccentricity":0.0002129,"inclination_deg":43.0014,"raan_deg":71.1711,"arg_perigee_deg":203.9411,"mean_anomaly_deg":156.1343,"bstar":0.001456,"rev_number":14268,"period_min":94.113671586614,"perigee_km":474.16012791007,"apogee_km":477.07845733947,"semimajor_km":6853.7562926248,"source":"CELESTRAK","updated_at":"2026-05-25T13:38:18.568886Z"}}}